Weather observations for the past three days for
Lake Charles Regional Airport
Imperial (Metric)
Date Time (cdt) Wind (mph) Vis. (mi.) Weather Sky Cond. Temperature (ºF) Relative Humidity Wind Chill (°F) Heat Index (°F) Pressure Precipitation (in)
Air Dwpt 6 hour altimeter (in) sea level (mb) 1 hr 3 hr 6 hr
Max. Min.
24 00:53 Calm 10.00 NULL NULL 80.1 78.1 88 79 94% 86 29.94 1014.7
23 23:53 S 3 10.00 Fair CLR 81 78.1 91% 89 29.95 1014.8
23 22:53 Calm 10.00 Fair CLR 81 78.1 91% 89 29.95 1014.8
23 21:53 S 3 10.00 Fair CLR 80.1 77 90% 86 29.93 1014.3
23 20:53 S 7 10.00 Fair CLR 82.9 77 82% 92 29.91 1013.6
23 19:53 S 8 10.00 Fair CLR 84.9 77 77% 95 29.91 1013.4
23 18:53 S 10 10.00 Fair CLR 88 77 91.9 88 70% 100 29.91 1013.5
23 17:53 SW 8 10.00 Fair CLR 90 78.1 68% 105 29.91 1013.6
23 16:53 SW 8 10.00 Fair CLR 90 77 66% 103 29.92 1013.9
23 15:53 SW 10 10.00 A Few Clouds FEW041 FEW080 91 77 64% 105 29.93 1014.3
23 14:53 SW 7 10.00 Fair CLR 91.9 77 62% 106 29.94 1014.7
23 13:53 SW 6 10.00 Overcast BKN040 OVC049 90 75.9 63% 102 29.96 1015.2
23 12:53 S 5 10.00 Partly Cloudy SCT034 91 75.9 91 77 61% 103 29.98 1015.8
23 11:53 SE 8 10.00 A Few Clouds FEW030 90 75.9 63% 102 29.99 1016.3
23 10:53 Vrbl 5 10.00 Fair CLR 88 75 66% 98 30 1016.6
23 09:53 Calm 10.00 Fair CLR 86 75.9 72% 96 30 1016.5
23 08:53 E 3 10.00 Fair CLR 84 77 80% 94 30 1016.6
23 07:53 NE 7 8.00 Fair CLR 80.1 77 90% 86 30 1016.6
23 06:53 NE 6 7.00 Fair CLR 77 75 78.1 75.9 94% 78 29.99 1016.1
23 05:53 NE 3 9.00 Fair CLR 77 75 94% 78 29.98 1015.8
23 04:53 Calm 10.00 Fair CLR 75.9 75 97% 75 29.97 1015.5
23 03:53 Calm 10.00 Fair CLR 77 75 94% 78 29.97 1015.5
23 02:53 Calm 10.00 Fair CLR 77 75 94% 78 29.97 1015.6
23 01:53 SE 3 10.00 Fair CLR 77 75 94% 78 29.98 1016.1
23 00:53 Calm 10.00 NULL NULL 77 75 86 77 94% 78 30 1016.6
22 23:53 S 3 10.00 Fair CLR 77 75 94% 78 30.01 1017.0
22 22:53 S 5 10.00 Fair CLR 78.1 73.9 87% 81 30.01 1017.0
22 21:53 S 5 10.00 Fair CLR 79 75 88% 83 30 1016.6
22 20:53 S 5 10.00 Fair CLR 80.1 73 79% 84 29.98 1016.1
22 19:53 S 8 10.00 Partly Cloudy SCT050 82.9 73 72% 89 29.98 1015.8
22 18:53 S 10 10.00 Partly Cloudy SCT049 84.9 75 93 84.9 72% 93 29.97 1015.6
22 17:53 SE 8 10.00 Fair CLR 91.9 72 52% 100 29.97 1015.4
22 16:53 SE 7 10.00 Partly Cloudy FEW045 SCT060 91 73 56% 100 29.98 1015.9
22 15:53 E 9 10.00 Mostly Cloudy SCT043 BKN050 90 73 58% 98 29.99 1016.3
22 14:53 Vrbl 3 10.00 A Few Clouds FEW043 90 72 56% 97 30.01 1016.9
22 13:53 SE 7 10.00 A Few Clouds FEW041 FEW050 91 72 54% 99 30.03 1017.5
22 12:53 Vrbl 7 10.00 Partly Cloudy SCT040 91 72 91 78.1 54% 99 30.04 1018.0
22 11:53 SE 10 10.00 A Few Clouds FEW043 90 71.1 54% 96 30.05 1018.3
22 10:53 E 7 10.00 Fair CLR 90 72 56% 97 30.05 1018.5
22 09:53 E 9 10.00 Fair CLR 88 72 59% 95 30.06 1018.6
22 08:53 Vrbl 6 10.00 Fair CLR 84.9 77 77% 95 30.08 1019.2
22 07:53 NE 6 10.00 NULL NULL 81 77 88% 88 30.07 1019.1
22 06:53 NE 5 10.00 Fair CLR 78.1 75.9 80.1 77 93% 81 30.07 1019.1
22 05:53 NE 5 10.00 Fair CLR 78.1 75.9 93% 81 30.07 1018.8
22 04:53 Calm 10.00 Fair CLR 79 77 94% 83 30.06 1018.7
22 03:53 Calm 10.00 Overcast OVC080 80.1 77 90% 86 30.06 1018.5
22 02:53 E 3 10.00 Overcast BKN055 OVC075 80.1 77 90% 86 30.07 1018.9
22 01:53 Calm 10.00 Mostly Cloudy BKN070 80.1 77 90% 86 30.07 1019.1
22 00:53 SE 5 10.00 A Few Clouds FEW075 80.1 75.9 88 78.1 87% 85 30.07 1019.1
21 23:53 SE 5 10.00 Fair CLR 80.1 75.9 87% 85 30.08 1019.2
21 22:53 SE 5 10.00 Overcast OVC100 81 75.9 85% 87 30.08 1019.2
21 21:53 Calm 10.00 Overcast OVC095 79 75 88% 83 30.07 1019.0
21 20:53 S 5 10.00 Overcast OVC100 81 75 82% 87 30.06 1018.6
21 19:53 E 8 10.00 Mostly Cloudy BKN110 82 73 74% 87 30.05 1018.4
21 18:53 SW 6 10.00 Fair CLR 88 75 91.9 88 66% 98 30.05 1018.2
21 17:53 SW 8 10.00 A Few Clouds FEW050 88 75 66% 98 30.05 1018.2
21 16:53 Vrbl 7 10.00 Partly Cloudy SCT045 91 73 56% 100 30.06 1018.6
21 15:53 SE 12 10.00 Fair CLR 91.9 72 52% 100 30.08 1019.2
21 14:53 E 9 G 17 10.00 A Few Clouds FEW070 91 75 59% 102 30.09 1019.7
21 13:53 E 13 G 21 10.00 A Few Clouds FEW039 FEW070 91 73.9 57% 101 30.11 1020.3
21 12:53 E 9 10.00 Partly Cloudy SCT035 SCT045 89.1 73.9 90 75.9 61% 98 30.13 1020.9
21 11:53 E 7 10.00 Mostly Cloudy BKN029 89.1 75 63% 99 30.13 1020.9
21 10:53 E 10 10.00 Mostly Cloudy BKN017 87.1 73.9 65% 95 30.13 1020.9
21 09:53 E 9 10.00 Mostly Cloudy BKN017 84.9 75.9 75% 94 30.13 1021.1
21 08:53 E 12 10.00 Fair CLR 82 75.9 82% 89 30.13 1021.1
21 07:53 E 12 10.00 Fair CLR 79 73.9 85% 83 30.12 1020.7
21 06:53 E 7 9.00 Fair CLR 75.9 73 77 73.9 91% 76 30.11 1020.3
21 05:53 NE 6 10.00 Fair CLR 75 72 90% 74 30.1 1019.9
21 04:53 NE 6 10.00 Fair CLR 75 72 90% 74 30.09 1019.5
21 03:53 NE 5 10.00 Fair CLR 75.9 73 91% 76 30.08 1019.5
21 02:53 NE 6 10.00 Fair CLR 75.9 73.9 94% 75 30.09 1019.7
21 01:53 NE 5 10.00 Fair CLR 75.9 73.9 94% 75 30.11 1020.5
Date Time (cdt) Wind (mph) Vis. (mi.) Weather Sky Cond. Air Dwpt Max. Min. Relative Humidity Wind Chill (°F) Heat Index (°F) altimeter (in) sea level (mb) 1 hr 3 hr 6 hr
6 hour
Temperature (ºF) Pressure Precipitation (in)